Regional Weather Roundup
Issued by NWS

Home | Current Version | Previous Version | Graphics & Text | Print | Product List | Glossary On
Versions: 1 2 3 4 5 6 7 8 9 10 11 12 13 14 15 16 17 18 19 20 21 22 23 24 25 26 27 28 29 30 31 32 33 34 35 36 37 38 39 40 41 42 43 44 45 46 47 48 49 50
000
ASUS43 KLMK 051910
RWRKY
KENTUCKY REGIONAL WEATHER ROUNDUP
NATIONAL WEATHER SERVICE LOUISVILLE KY
300 PM EDT THU MAY 05 2016

NOTE "FAIR" INDICATES FEW OR NO CLOUDS BELOW 12,000 FEET
WITH NO SIGNIFICANT WEATHER AND/OR OBSTRUCTIONS TO VISIBILITY.

KYZ001>023-026-027-061>063-070>075-052000-
WESTERN AND SOUTH CENTRAL KENTUCKY

CITY           SKY/WX    TMP DP  RH WIND       PRES   REMARKS
PADUCAH        PTSUNNY   61  43  51 N18G24    29.97S
HENDERSON      CLOUDY    57  43  58 NW15      29.95S
OWENSBORO      CLOUDY    58  42  55 N7        29.94R
HOPKINSVILLE   PTSUNNY   54  41  60 NW13      29.94R
BOWLING GREEN  PTSUNNY   59  40  49 N9        29.91R
GLASGOW        CLOUDY    54  40  60 N8G18     29.89S
$$

KYZ024-025-028>034-038-045-046-053-052000-
NORTH CENTRAL KENTUCKY

CITY           SKY/WX    TMP DP  RH WIND       PRES   REMARKS
LOUISVILLE/SDF CLOUDY    54  40  59 N14       29.90R
LOUISVILLE/LOU CLOUDY    53  41  63 N12       29.91R
FORT KNOX      CLOUDY    53  41  64 N14       29.89R
$$

KYZ035>037-039>044-047>052-055>060-089>105-052000-
NORTHEAST KENTUCKY

CITY           SKY/WX    TMP DP  RH WIND       PRES   REMARKS
LEXINGTON      PTSUNNY   55  39  54 N13       29.85S
COVINGTON      CLOUDY    52  43  71 N14       29.87R
FRANKFORT      PTSUNNY   56  38  50 NW13      29.85F
$$

KYZ054-064>069-076>088-106>120-052000-
SOUTHEAST KENTUCKY

CITY           SKY/WX    TMP DP  RH WIND       PRES   REMARKS
JACKSON        CLOUDY    50  37  61 NW7       29.81R
LONDON         PTSUNNY   53  40  61 N8G17     29.82R
SOMERSET       CLOUDY    50  37  62 NW10G17   29.87R
MIDDLESBORO    CLOUDY    54  43  66 NW13      29.80R
MONTICELLO     CLOUDY    49  42  77 NW15      29.88R
$$





USA.gov is the U.S. government's official web portal to all federal, state and local government web resources and services.